User: anonymous   Login
Location: Newark
(49.3667°N, 21.6167°E)
Time: 11:06:03
(UTC+00:00)
Language:

Hubble Space Telescope - Orbit

View from above orbital plane
View from above orbital plane
View from above satellite
View from above satellite

Ground track
Ground track

The orbit data is extracted from the following two-line orbital elements,

1 20580U 90037B   20022.55952642 +.00000339 +00000-0 +96466-5 0  9999
2 20580 028.4681 211.1922 0002597 312.7751 083.0908 15.09328196433757
Epoch (UTC): 22 January 2020 13:25:43
Eccentricity: 0.0002597
inclination: 28.4681°
perigee height: 536 km
apogee height: 540 km
right ascension of ascending node: 211.1922°
argument of perigee: 312.7751°
revolutions per day: 15.09328196
mean anomaly at epoch: 83.0908°
orbit number at epoch: 43375

The dashed part of the orbit path shows where the satellite is in the earth's shadow,  

DLR